Flag for Albania Weather past 2 weeks in Durrës, Albania

Now
73 °F

Clear.


Feels Like: 72 °F
Forecast: 74 / 85 °F
Wind: 2 mph from South

Location: Tirana Airport

Current Time: Aug 22, 2014 at 2:14:41 AM

Latest Report: Aug 22, 2014 at 1:50 AM


Visibility: 10 mi

Pressure: 29.98 "Hg

Humidity: 89%

Dew point: 70 °F

Location of DurrësLocation

Historic Weather in Durrës — Graph

°F

Durrës temperature yesterday

Maximum temperature yesterday: 90 °F (at 12:50 PM)
Minimum temperature yesterday: 68 °F (at 5:50 AM)
Average temperature yesterday: 78 °F

Past Weeks' High & Low Weather Summary

 TemperatureHumidityPressure
High97 °F (Aug 13, 12:50 PM)94% (Aug 7, 1:50 AM)30.04 "Hg (Aug 7, 1:50 AM)
Low59 °F (Aug 19, 4:20 AM)26% (Aug 14, 2:50 PM)29.77 "Hg (Aug 7, 1:20 AM)
Average77 °F66%29.92 "Hg
* Reported Aug 7 1:20 AM — Aug 22 1:20 AM, Durrës, Weather by CustomWeather, © 2014

Note: Actual official high and low records may vary slightly from our data, if they occured in-between our weather recording intervals... More about our weather records

Advertising

Durrës weather history for previous 24 hours

 ConditionsComfort  
Time TempWeatherWind HumidityBarometerVisibility
1:20 AM
Aug 22
73 °FClear.2 mph89%29.98 "Hg10 mi
12:50 AM72 °FClear.2 mph88%29.98 "Hg10 mi
12:20 AM73 °FClear.1 mph83%30.01 "Hg10 mi
11:50 PM
Aug 21
73 °FClear.3 mph89%30.01 "Hg10 mi
11:20 PM73 °FClear.2 mph89%29.98 "Hg10 mi
10:50 PM75 °FClear.No wind83%29.98 "Hg10 mi
10:20 PM75 °FClear.No wind83%29.98 "Hg10 mi
9:50 PM75 °FClear.No wind89%29.98 "Hg10 mi
9:20 PM75 °FClear.3 mph89%29.98 "Hg10 mi
8:50 PM77 °FClear.No wind79%29.98 "Hg10 mi
8:20 PM81 °FSunny.2 mph70%29.98 "Hg10 mi
7:50 PM79 °FSunny.3 mph70%29.95 "Hg10 mi
7:20 PM79 °FSunny.5 mph70%29.95 "Hg10 mi
6:50 PM82 °FPassing clouds.3 mph62%29.95 "HgN/A
6:20 PM82 °FSunny.6 mph62%29.95 "Hg10 mi
5:50 PM82 °FSunny.7 mph62%29.95 "Hg10 mi
5:20 PM82 °FPassing clouds.12 mph58%29.98 "HgN/A
4:50 PM82 °FPassing clouds.12 mph55%29.98 "HgN/A
4:20 PM86 °FScattered clouds.12 mph49%29.98 "HgN/A
3:50 PM88 °FPartly sunny.9 mph43%29.95 "HgN/A
3:20 PM88 °FBroken clouds.9 mph52%29.98 "HgN/A
2:50 PM86 °FScattered clouds.12 mph55%29.98 "HgN/A
2:20 PM88 °FScattered clouds.7 mph52%29.98 "HgN/A
1:50 PM86 °FScattered clouds.9 mph55%29.98 "HgN/A
1:20 PM88 °FScattered clouds.7 mph49%29.98 "HgN/A
12:50 PM90 °FPassing clouds.5 mph41%29.98 "HgN/A
12:20 PM88 °FPassing clouds.6 mph43%29.98 "HgN/A
11:50 AM88 °FPassing clouds.3 mph40%29.98 "HgN/A
11:20 AM88 °FSunny.2 mph40%29.98 "Hg10 mi
10:50 AM86 °FSunny.2 mph49%29.98 "Hg10 mi
10:20 AM84 °FScattered clouds.3 mph51%30.01 "HgN/A
9:50 AM81 °FScattered clouds.3 mph54%30.01 "HgN/A
9:20 AM79 °FScattered clouds.3 mph58%30.01 "HgN/A
8:50 AM79 °FScattered clouds.3 mph61%30.01 "HgN/A
8:20 AM75 °FScattered clouds.5 mph69%30.01 "HgN/A
7:50 AM73 °FScattered clouds.3 mph78%30.01 "HgN/A
7:20 AM72 °FScattered clouds.2 mph83%30.01 "HgN/A
6:50 AM70 °FPassing clouds.5 mph88%30.01 "HgN/A
6:20 AM68 °FPassing clouds.3 mph88%30.01 "HgN/A
5:50 AM68 °FPassing clouds.3 mph88%29.98 "HgN/A
5:20 AM70 °FPassing clouds.2 mph88%29.98 "HgN/A
4:50 AM70 °FPassing clouds.2 mph88%29.98 "HgN/A
4:20 AM70 °FPassing clouds.1 mph88%29.98 "HgN/A
3:50 AM70 °FPassing clouds.2 mph88%29.98 "HgN/A
3:20 AM72 °FPassing clouds.1 mph83%29.98 "HgN/A
2:50 AM73 °FPassing clouds.3 mph78%29.98 "HgN/A
2:20 AM73 °FPassing clouds.3 mph83%29.98 "HgN/A
Weather by CustomWeather, © 2014

See weather overviewHow to use our weather pages